Location: Doux
(49.5045°N, 4.4321°E)
Time: 17:42:10
(UTC+00:00)

Cosmos 1782 Rocket - Pass Details

Date: 14 August 2024
Orbit: 602 x 628 km, 82.5° (Epoch: 19 September)

Event Time Altitude Azimuth Distance (km) Brightness Sun altitude
Rises 02:52:01 0° 149° (SSE) 2,886 6.9 -14.4°
Reaches altitude 10° 02:54:42 10° 133° (SE) 1,991 6.2 -14.1°
Maximum altitude 02:57:55 20° 86° (E) 1,446 6.1 -13.7°
Drops below altitude 10° 03:01:10 10° 39° (NE) 2,012 7.6 -13.3°
Sets 03:03:52 0° 23° (NNE) 2,928 8.3 -13.0°
